CW0677 Weather Reports


Display with metric or nautical units.
time (UTC)temp
F
wind
direction
speed
MPH
gust
MPH
rain 1hr
in
rain 24hr
in
rain mn
in
humidity
%
barometer
mb
20260508121556 52 242 2.0 3.0 0.00 0.00 0.00 92 1017.8
20260508120055 52 0 0.0 2.0 0.00 0.00 0.00 92 1017.7
20260508114600 52 0 0.0 1.0 0.00 0.00 0.00 92 1017.9
20260508113123 52 0 1.0 3.0 0.00 0.00 0.00 92 1017.8
20260508111558 52 0 0.0 4.0 0.00 0.00 0.00 92 1017.9
20260508110053 52 0 1.0 3.0 0.00 0.00 0.00 91 1018.1
20260508103105 52 132 1.0 4.0 0.00 0.00 0.00 91 1018.1
20260508101603 53 193 0.0 3.0 0.00 0.00 0.00 91 1018.0
20260508100100 53 0 0.0 3.0 0.00 0.00 0.00 90 1018.0
20260508094601 53 169 0.0 4.0 0.00 0.00 0.00 90 1018.1
20260508093102 53 152 0.0 7.0 0.00 0.00 0.00 90 1018.0
20260508091556 53 183 2.0 4.0 0.00 0.00 0.00 90 1018.0
20260508090100 53 163 1.0 6.0 0.00 0.00 0.00 90 1017.9
20260508084559 53 135 2.0 6.0 0.00 0.00 0.00 90 1017.9
20260508083058 53 138 0.0 4.0 0.00 0.00 0.00 90 1017.8
20260508081604 53 0 0.0 6.0 0.00 0.00 0.00 90 1017.9
20260508080052 53 134 1.0 5.0 0.00 0.00 0.00 90 1018.0
20260508074559 53 167 2.0 6.0 0.00 0.00 0.00 90 1017.9
20260508073105 53 169 2.0 7.0 0.00 0.00 0.00 90 1018.0
20260508071556 53 165 2.0 6.0 0.00 0.00 0.00 90 1017.8
20260508070100 53 0 2.0 6.0 0.00 0.00 0.00 90 1017.8
20260508064605 53 0 1.0 9.0 0.00 0.00 0.00 90 1018.0
20260508063054 53 147 1.0 9.0 0.00 0.00 0.00 90 1017.8
20260508061601 53 226 1.0 7.0 0.00 0.00 0.00 90 1017.9
20260508060055 53 221 3.0 9.0 0.00 0.00 0.00 90 1017.9
20260508054623 53 198 4.0 8.0 0.00 0.00 0.00 89 1018.0
20260508053101 53 194 3.0 8.0 0.00 0.00 0.00 88 1017.9
20260508051557 54 167 2.0 8.0 0.00 0.00 0.00 88 1017.9
20260508050058 54 0 1.0 6.0 0.00 0.00 0.00 88 1017.8
20260508044553 54 201 2.0 6.0 0.00 0.00 0.00 88 1017.7
20260508043058 54 223 2.0 9.0 0.00 0.00 0.00 87 1017.6
20260508041554 55 232 2.0 8.0 0.00 0.00 0.00 88 1017.4
20260508034553 55 192 4.0 12.0 0.00 0.00 0.00 87 1017.1
20260508033057 56 170 5.0 11.0 0.00 0.00 0.00 86 1017.0
20260508031604 57 159 4.0 11.0 0.00 0.00 0.00 84 1016.9
20260508030105 58 191 3.0 14.0 0.00 0.00 0.00 83 1016.8
20260508024555 59 165 4.0 10.0 0.00 0.00 0.00 81 1016.6
20260508023053 60 145 3.0 7.0 0.00 0.00 0.00 80 1016.5
20260508021603 61 161 5.0 10.0 0.00 0.00 0.00 80 1016.5
20260508020054 62 150 3.0 12.0 0.00 0.00 0.00 78 1016.5
20260508014557 63 189 4.0 11.0 0.00 0.00 0.00 77 1016.6
20260508013059 63 113 5.0 13.0 0.00 0.00 0.00 77 1016.6
20260508011611 63 190 5.0 13.0 0.00 0.00 0.00 76 1016.8
20260508010103 64 167 4.0 11.0 0.00 0.00 0.00 76 1016.8
20260508004600 64 208 5.0 11.0 0.00 0.00 0.00 75 1016.9
20260508003057 65 168 5.0 11.0 0.00 0.00 0.00 74 1016.9
20260508001600 66 197 4.0 16.0 0.00 0.00 0.00 74 1016.9
20260508000116 65 209 5.0 12.0 0.00 0.00 0.00 74 1016.9
20260507234553 66 175 5.0 13.0 0.00 0.00 0.00 74 1016.8
20260507233056 67 175 3.0 14.0 0.00 0.00 0.00 72 1017.0
20260507231600 67 174 6.0 12.0 0.00 0.00 0.00 72 1017.0
20260507230056 67 140 4.0 14.0 0.00 0.00 0.00 73 1017.0
20260507224553 68 174 5.0 12.0 0.00 0.00 0.00 72 1017.2
20260507223056 69 191 4.0 15.0 0.00 0.00 0.00 72 1017.3
20260507221601 68 173 5.0 10.0 0.00 0.00 0.00 72 1017.4
20260507220055 68 200 4.0 10.0 0.00 0.00 0.00 73 1017.6
20260507214555 67 195 2.0 11.0 0.00 0.00 0.00 74 1017.8
20260507213054 66 209 3.0 11.0 0.00 0.00 0.00 74 1018.1
20260507211601 66 174 3.0 11.0 0.00 0.00 0.00 75 1018.1
20260507210057 65 198 3.0 11.0 0.00 0.00 0.00 76 1018.1
20260507204555 65 150 3.0 10.0 0.00 0.00 0.00 77 1018.3
20260507203054 66 135 3.0 9.0 0.00 0.00 0.00 77 1018.4
20260507201600 65 245 3.0 11.0 0.00 0.00 0.00 78 1018.5
20260507200055 64 252 2.0 10.0 0.00 0.00 0.00 79 1018.6
20260507194553 63 153 3.0 10.0 0.00 0.00 0.00 79 1018.7
20260507193059 63 245 1.0 9.0 0.00 0.00 0.00 80 1018.9
20260507191554 60 285 2.0 6.0 0.00 0.00 0.00 81 1019.3
20260507190057 60 285 1.0 6.0 0.00 0.00 0.00 81 1019.6
20260507184555 59 177 0.0 6.0 0.00 0.00 0.00 82 1019.6
20260507183055 59 190 2.0 6.0 0.00 0.00 0.00 83 1019.7
20260507181556 57 0 1.0 7.0 0.00 0.00 0.00 85 1019.7
20260507174627 57 12 1.0 4.0 0.00 0.00 0.00 86 1019.8
20260507173100 56 0 1.0 4.0 0.00 0.00 0.00 86 1019.8
20260507171611 56 70 1.0 4.0 0.00 0.00 0.00 88 1019.7
20260507170057 55 131 1.0 4.0 0.00 0.00 0.00 88 1019.9
20260507164601 55 0 0.0 2.0 0.00 0.00 0.00 90 1019.8
20260507163053 54 318 2.0 4.0 0.00 0.00 0.00 90 1019.8
20260507161559 54 148 2.0 4.0 0.00 0.00 0.00 90 1019.7
20260507160115 54 242 0.0 3.0 0.00 0.00 0.00 91 1019.6
20260507154558 53 195 1.0 4.0 0.00 0.00 0.00 92 1019.6
20260507153056 53 224 1.0 4.0 0.00 0.00 0.00 92 1019.6
20260507151600 53 0 0.0 3.0 0.00 0.00 0.00 92 1019.7
20260507150058 52 232 1.0 4.0 0.00 0.00 0.00 92 1019.7
20260507144556 52 202 1.0 4.0 0.00 0.00 0.00 93 1019.7
20260507143111 52 186 0.0 4.0 0.00 0.00 0.00 92 1019.6
20260507141633 52 0 0.0 4.0 0.00 0.00 0.00 93 1019.5
20260507140112 52 149 1.0 6.0 0.00 0.00 0.00 92 1019.3
20260507134607 52 98 0.0 4.0 0.00 0.00 0.00 92 1019.0
20260507133100 52 126 1.0 3.0 0.00 0.00 0.00 92 1018.8
20260507131616 52 171 1.0 4.0 0.00 0.00 0.00 92 1018.6
20260507124601 52 214 0.0 5.0 0.00 0.00 0.00 92 1018.5
20260507123103 52 0 0.0 3.0 0.00 0.00 0.00 92 1018.5